Weather History for VIAR - April, 2013

Change the Weather History Date:

Monday, April 8, 2013

  Actual Average Record
Temperature  
Mean Temperature 76 °F -  
Max Temperature 92 °F - - ()
Min Temperature 60 °F - - ()
Cooling Degree Days 11    
Growing Degree Days 26 (Base 50)    
Moisture  
Dew Point 59 °F    
Average Humidity 55    
Maximum Humidity 100    
Minimum Humidity 21    
Precipitation  
Precipitation 0.00 in - - ()
Sea Level Pressure  
Sea Level Pressure 29.76 in    
Wind  
Wind Speed 3 mph ()    
Max Wind Speed 10 mph    
Max Gust Speed -    
Visibility 3.2 miles    
Events      
T = Trace of Precipitation, MM = Missing Value Source: Averaged Metar Reports

Daily Weather History Graph

Daily Weather History Graph

Search for Another Location

Airport or City:

Trip Planner

Search our weather history database for the weather conditions in past years. The results will help you decide how hot, cold, wet, or windy it might be!

Date:

Astronomy

Apr. 08, 2013 Rise Set
Actual Time 6:10 AM IST 6:54 PM IST
Civil Twilight 5:46 AM IST 7:19 PM IST
Nautical Twilight 5:17 AM IST 7:48 PM IST
Astronomical Twilight 4:47 AM IST 8:18 PM IST
Moon 4:38 AM IST (4/8) 5:06 PM IST (4/8)
Length of Visible Light 13h 33m
Length of Day
12h 44m
Waning Crescent, 5% of the Moon is Illuminated
Apr 8
Waning Crescent
Apr 10
New
Apr 18
First Quarter
Apr 26
Full
May 2
Last Quarter

Hourly Weather History & Observations

Time (IST) Temp. Heat Index Dew Point Humidity Pressure Visibility Wind Dir Wind Speed Gust Speed Precip Events Conditions
12:00 AM 69.8 °F - 59.0 °F 68% 29.77 in 3.1 mi Variable 2.3 mph - N/A   Haze
12:30 AM 69.8 °F - 57.2 °F 64% 29.77 in 3.1 mi NW 4.6 mph - N/A   Haze
1:00 AM 69.8 °F - 55.4 °F 60% 29.77 in 3.1 mi NNW 5.8 mph - N/A   Haze
1:30 AM 71.6 °F - 55.4 °F 57% 29.77 in 3.1 mi NNW 5.8 mph - N/A   Haze
2:00 AM 69.8 °F - 55.4 °F 60% 29.74 in 3.1 mi NW 6.9 mph - N/A   Haze
2:30 AM 67 °F - 56 °F 58% 29.73 in 2 mi Calm Calm - -   Mist
2:30 AM 66.2 °F - 55.4 °F 68% 29.74 in 3.1 mi Calm Calm - N/A   Haze
3:00 AM 66.2 °F - 57.2 °F 73% 29.74 in 3.1 mi Calm Calm - N/A   Haze
3:30 AM 64.4 °F - 57.2 °F 77% 29.74 in 3.1 mi Calm Calm - N/A   Haze
4:00 AM 66.2 °F - 55.4 °F 68% 29.71 in 3.1 mi Calm Calm - N/A   Haze
5:00 AM 62.6 °F - 60.8 °F 94% 29.71 in 3.1 mi Calm Calm - N/A   Haze
5:30 AM 62 °F - 60 °F 90% 29.73 in 2 mi Calm Calm - -   Mist
5:30 AM 60.8 °F - 60.8 °F 100% 29.74 in 3.1 mi Calm Calm - N/A   Haze
6:00 AM 60.8 °F - 60.8 °F 100% 29.74 in 3.1 mi Calm Calm - N/A   Haze
6:30 AM 60.8 °F - 60.8 °F 100% 29.74 in 3.1 mi Calm Calm - N/A   Scattered Clouds
7:00 AM 62.6 °F - 60.8 °F 94% 29.77 in 3.1 mi Calm Calm - N/A   Scattered Clouds
7:30 AM 66.2 °F - 60.8 °F 83% 29.77 in 3.1 mi Calm Calm - N/A   Scattered Clouds
8:00 AM 69.8 °F - 59.0 °F 68% 29.80 in 3.1 mi NW 3.5 mph - N/A   Scattered Clouds
8:30 AM 72 °F - 60 °F 56% 29.77 in 2 mi NW 4.6 mph - -   Haze
8:30 AM 71.6 °F - 59.0 °F 64% 29.80 in 3.1 mi NW 4.6 mph - N/A   Haze
9:00 AM 75.2 °F - 57.2 °F 53% 29.80 in 3.7 mi Calm Calm - N/A   Mostly Cloudy
9:30 AM 80.6 °F 80.8 °F 57.2 °F 45% 29.80 in 3.7 mi Calm Calm - N/A   Mostly Cloudy
10:00 AM 80.6 °F 81.5 °F 60.8 °F 51% 29.83 in 3.7 mi Variable 2.3 mph - N/A   Mostly Cloudy
10:30 AM 84.2 °F 84.4 °F 60.8 °F 45% 29.83 in 3.7 mi Calm Calm - N/A   Mostly Cloudy
11:00 AM 84.2 °F 83.8 °F 59.0 °F 42% 29.83 in 3.7 mi WNW 5.8 mph - N/A   Mostly Cloudy
11:30 AM 87 °F - 60 °F 30% 29.78 in 2 mi West 5.8 mph - -   Scattered Clouds
11:30 AM 87.8 °F 87.6 °F 60.8 °F 40% 29.83 in 3.7 mi West 5.8 mph - N/A   Mostly Cloudy
12:00 PM 87.8 °F 86.5 °F 57.2 °F 35% 29.83 in 3.7 mi West 6.9 mph - N/A   Mostly Cloudy
12:30 PM 91.4 °F 89.9 °F 57.2 °F 31% 29.83 in 3.7 mi West 6.9 mph - N/A   Mostly Cloudy
1:00 PM 91.4 °F 89.9 °F 57.2 °F 31% 29.80 in 3.7 mi WNW 8.1 mph - N/A   Mostly Cloudy
1:30 PM 91.4 °F 90.7 °F 59.0 °F 34% 29.80 in 3.7 mi WNW 8.1 mph - N/A   Mostly Cloudy
2:00 PM 91.4 °F 89.9 °F 57.2 °F 31% 29.80 in 3.7 mi West 10.4 mph - N/A   Mostly Cloudy
2:30 PM 92 °F - 57 °F 21% 29.73 in 2 mi WNW 8.1 mph - -   Scattered Clouds
2:30 PM 91.4 °F 89.9 °F 57.2 °F 31% 29.77 in 3.7 mi WNW 8.1 mph - N/A   Mostly Cloudy
3:00 PM 91.4 °F 89.4 °F 55.4 °F 29% 29.77 in 3.7 mi WNW 9.2 mph - N/A   Mostly Cloudy
3:30 PM 91.4 °F 89.9 °F 57.2 °F 31% 29.74 in 3.7 mi NW 6.9 mph - N/A   Scattered Clouds
4:00 PM 91.4 °F 89.9 °F 57.2 °F 31% 29.74 in 3.7 mi WNW 4.6 mph - N/A   Scattered Clouds
4:30 PM 91.4 °F 89.9 °F 57.2 °F 31% 29.74 in 3.7 mi WNW 6.9 mph - N/A   Scattered Clouds
5:00 PM 89.6 °F 88.9 °F 59.0 °F 36% 29.74 in 3.7 mi Variable 1.2 mph - N/A   Scattered Clouds
5:30 PM 90 °F - 59 °F 25% 29.68 in 2 mi 4.6 mph - -   Scattered Clouds
5:30 PM 89.6 °F 88.9 °F 59.0 °F 36% 29.74 in 3.7 mi Variable 2.3 mph - N/A   Scattered Clouds
6:00 PM 87.8 °F 88.5 °F 62.6 °F 43% 29.74 in 3.7 mi Variable 1.2 mph - N/A   Scattered Clouds
6:30 PM 86.0 °F 86.1 °F 60.8 °F 43% 29.74 in 3.7 mi Variable 1.2 mph - N/A   Scattered Clouds
7:00 PM 84.2 °F 85.0 °F 62.6 °F 48% 29.74 in 3.7 mi Variable 2.3 mph - N/A   Scattered Clouds
7:30 PM 84.2 °F 85.0 °F 62.6 °F 48% 29.74 in 3.7 mi Variable 1.2 mph - N/A   Scattered Clouds
8:00 PM 80.6 °F 82.3 °F 64.4 °F 58% 29.74 in 3.7 mi Calm Calm - N/A   Scattered Clouds
8:30 PM 79 °F - 63 °F 49% 29.73 in 2 mi Calm Calm - -   Haze
8:30 PM 77.0 °F - 64.4 °F 65% 29.77 in 3.1 mi Calm Calm - N/A   Haze
9:00 PM 77.0 °F - 64.4 °F 65% 29.77 in 3.1 mi Calm Calm - N/A   Haze
9:30 PM 75.2 °F - 64.4 °F 69% 29.77 in 3.1 mi Calm Calm - N/A   Haze
10:00 PM 75.2 °F - 66.2 °F 73% 29.77 in 3.1 mi Calm Calm - N/A   Haze
10:30 PM 75.2 °F - 62.6 °F 65% 29.77 in 3.1 mi NE 3.5 mph - N/A   Haze
11:00 PM 77.0 °F - 62.6 °F 61% 29.77 in 3.1 mi NE 6.9 mph - N/A   Haze
11:30 PM 78 °F - 60 °F 44% 29.73 in 2 mi NE 6.9 mph - -   Haze
11:30 PM 78.8 °F - 60.8 °F 54% 29.77 in 3.1 mi NE 6.9 mph - N/A   Haze